Location: Moscow
(30.9132°N, 94.8252°W)
Time: 07:00:12
(UTC+00:00)

Timation 1 Rocket - Pass Details

Date: 15 November 2025
Orbit: 898 x 905 km, 70.0° (Epoch: 13 December)

Event Time Altitude Azimuth Distance (km) Brightness Sun altitude
Rises 01:20:30 0° 337° (NNW) 3,520 7.6 -25.5°
Reaches altitude 10° 01:23:00 10° 337° (NNW) 2,577 6.9 -26.0°
Maximum altitude 01:28:57 83° 251° (WSW) 911 4.3 -27.3°
Enters shadow 01:31:50 33° 166° (SSE) 1,479 5.3 -27.9°
